Location: Unspecified
(0.0000°N, 0.0000°E)
Time: 16:25:45
(UTC+00:00)

Explorer 11/Cluster Stage 4 - Visible Passes

Search period start: 18 April 2026 00:00
Search period end: 28 April 2026 00:00
Orbit: 463 x 1174 km, 28.8° (Epoch: 18 April)

Date Brightness Start Highest point End Pass type
(mag) Time Alt. Az. Time Alt. Az. Time Alt. Az.
18 Apr 7.5 05:17:59 10° SSW 05:21:48 32° SSE 05:26:17 10° E visible
18 Apr 8.3 19:49:10 10° W 19:53:51 22° SSW 19:55:01 21° SSW visible
19 Apr 7.3 04:54:27 15° SSW 04:57:16 31° SSE 05:01:28 10° E visible
19 Apr 8.4 19:24:09 10° W 19:29:11 23° SSW 19:32:11 16° S visible
20 Apr 7.1 04:31:41 27° S 04:32:46 31° SSE 04:36:42 10° E visible
20 Apr 8.6 18:59:08 10° W 19:04:28 24° SSW 19:09:07 10° SSE visible
21 Apr 7.3 04:08:54 29° SE 04:08:54 29° SE 04:11:59 10° E visible
21 Apr 8.7 18:34:06 10° W 18:39:43 25° SSW 18:44:40 10° SSE visible
22 Apr 8.4 03:46:06 17° E 03:46:06 17° E 03:47:21 10° E visible
22 Apr 6.9 05:27:28 10° W 05:31:03 33° NNW 05:35:12 10° NE visible
23 Apr 6.9 05:04:30 18° WNW 05:06:33 30° NNW 05:10:23 10° NE visible
24 Apr 6.8 04:41:37 27° NW 04:42:05 28° NNW 04:45:37 10° NNE visible
25 Apr 7.4 04:18:42 22° N 04:18:42 22° N 04:20:54 10° NNE visible
26 Apr 8.4 03:55:44 13° NNE 03:55:44 13° NNE 03:56:14 10° NNE visible
